Find Starlink 31280

NORAD ID: 58843 Int'l Des: 2024-017 Owner: SPXS Country: US Constellation: starlink operational
LEOCIRCULAR

Current View

Loading 3D Globe...

About Starlink 31280

Starlink 31280 (NORAD 58843) is a starlink constellation satellite (v2 mini) launched Jan 24, 2024 by SPXS of US. It operates in LEO, CIRCULAR orbit with a mass of 730.00 kg.

Upcoming Passes

Passes for default location (London). Set your location on the main map for personalized predictions.

Altitude History

Loading altitude history...

Two-Line Element Set

1 58843U 24017T 26254.72443567 -.00004261 00000-0 -11513-3 0 9998
2 58843 53.1597 58.4563 0000935 79.8655 280.2453 15.34381720148560
Epoch: Sep 11, 2026 • Age: 11 hours

Current Status

Altitude 478.3 km
Apogee / Perigee N/A
Velocity 7.63 km/s
Sub-Earth Point -44.41°S, 42.68°W
Launch Date Jan 24, 2024
Age 2.6 years
Type internet

Technical Details

Classification Payload
Mass 730.00 kg
Dry Mass 700.00 kg
Total Mass 730.00 kg
Length 0.30 m
Diameter 4.10 m
Span 29.00 m
Shape Box + pan
Manufacturer SPXS
Bus Type Starlink V2M
Phase Status In Orbit
Owner/State SPXS/US

Most Searched